カタログに戻る

DELTA 2 R/B(1)

運用中LEO
NORAD 25510·ROCKET BODY·🇺🇸 United States

打ち上げ Oct 24, 1998 から Cape Canaveral Space Force Station

Loading…

次のパス (今後24時間)

TLE

最新Source: Space-Track

元期: Sep 14, 2026, 18:24 UTC

1 25510U 98061C   26257.76667722  .00000525  00000-0  72541-4 0  9997
2 25510  31.4335 155.2239 0304295 236.0222 121.1139 14.44127230464595

AllMySatでDELTA 2 R/B(1)をリアルタイム追跡

Download on the App Store